Tracking 35237 objects as of 5-Sep-2026
HD Live streaming from Space Station
objects crossing your sky now

STARLINK-4021

Track STARLINK-4021 now!
10-day predictions
STARLINK-4021 is classified as:


NORAD ID: 53149
Int'l Code: 2022-083T
Launch date: July 17, 2022
Source: United States (US)
Launch site: AIR FORCE EASTERN TEST RANGE (AFETR)
Your satellite tracking list
Your tracking list is empty




NASA's NSSDC Master Catalog

Two Line Element Set (TLE):
1 53149U 22083T   26248.59521312 -.00000087  00000-0  85506-5 0  9992
2 53149  53.1602  65.2118 0001244  87.8437 272.2708 15.34395782228672
Source of the keplerian elements: AFSPC